When you browse on this site, cookies collect data to enhance your experience and personalize the content and advertising you see.
Visit our Privacy Policy to learn more. By continuing to use the site, you agree to this use of cookies and data.
  • In Hungary
  • List of Countries
  • For 7 days
  • Water Temperature
  • Satellite Maps
  • Weather Map
  • News
  • Weather Widgets
  • user-avatar
    Login

    Hourly Weather Askaniya-Nova

    Today, 18 November, Sunday

    Time Temperature Precipitation Wind Pressure Humidity
    00:00 +1°C° 0 mm 2 mps 771 mmHg 81%
    01:00 +1°C° 0 mm 2 mps 771 mmHg 83%
    02:00 +1°C° 0 mm 2 mps 771 mmHg 85%
    03:00 +1°C° 0 mm 2 mps 770 mmHg 86%
    04:00 -1°C° 0 mm 2 mps 770 mmHg 87%
    05:00 -1°C° 0 mm 2 mps 770 mmHg 88%
    06:00 -1°C° 0 mm 2 mps 770 mmHg 86%
    07:00 -1°C° 0 mm 2 mps 769 mmHg 84%
    08:00 +1°C° 0 mm 2 mps 769 mmHg 82%
    09:00 +3°C° 0 mm 1 mps 769 mmHg 78%
    10:00 +4°C° 0 mm 1 mps 769 mmHg 73%
    11:00 +3°C° 0 mm 0 mps 769 mmHg 68%
    12:00 +4°C° 0 mm 0 mps 768 mmHg 67%
    13:00 +5°C° 0 mm 1 mps 768 mmHg 66%
    14:00 +6°C° 0 mm 1 mps 767 mmHg 65%
    15:00 +5°C° 0 mm 1 mps 767 mmHg 67%
    16:00 +5°C° 0 mm 1 mps 767 mmHg 69%
    17:00 +5°C° 0 mm 1 mps 767 mmHg 71%
    18:00 +4°C° 0 mm 1 mps 766 mmHg 72%
    19:00 +4°C° 0 mm 1 mps 766 mmHg 74%
    20:00 +4°C° 0 mm 1 mps 766 mmHg 76%
    21:00 +3°C° 0 mm 2 mps 766 mmHg 78%
    22:00 +2°C° 0 mm 2 mps 766 mmHg 79%
    23:00 +1°C° 0 mm 3 mps 766 mmHg 81%

    Tomorrow, 19 November, Monday

    Time Temperature Precipitation Wind Pressure Humidity
    00:00 +1°C° 0 mm 3 mps 765 mmHg 81%
    01:00 0°C° 0 mm 4 mps 765 mmHg 82%
    02:00 0°C° 0 mm 4 mps 765 mmHg 83%
    03:00 0°C° 0 mm 4 mps 764 mmHg 82%
    04:00 +1°C° 0 mm 5 mps 764 mmHg 82%
    05:00 +1°C° 0 mm 5 mps 764 mmHg 81%
    06:00 +1°C° 0.1 mm 6 mps 763 mmHg 82%
    07:00 +2°C° 0.1 mm 6 mps 763 mmHg 83%
    08:00 +2°C° 0.1 mm 6 mps 763 mmHg 84%
    09:00 +2°C° 0.7 mm 7 mps 763 mmHg 84%
    10:00 +3°C° 0.7 mm 7 mps 762 mmHg 84%
    11:00 +2°C° 0.7 mm 8 mps 762 mmHg 84%
    12:00 +2°C° 1.5 mm 9 mps 761 mmHg 84%
    13:00 +2°C° 1.5 mm 9 mps 761 mmHg 84%
    14:00 +2°C° 1.5 mm 10 mps 760 mmHg 85%
    15:00 +2°C° 0.9 mm 10 mps 759 mmHg 86%
    16:00 +3°C° 0.9 mm 10 mps 758 mmHg 87%
    17:00 +3°C° 0.9 mm 10 mps 758 mmHg 88%
    18:00 +5°C° 0.6 mm 10 mps 757 mmHg 89%
    19:00 +5°C° 0.6 mm 9 mps 757 mmHg 89%
    20:00 +6°C° 0.6 mm 9 mps 756 mmHg 90%
    21:00 +7°C° 0.2 mm 8 mps 756 mmHg 90%
    22:00 +7°C° 0.2 mm 8 mps 756 mmHg 91%
    23:00 +9°C° 0.2 mm 8 mps 755 mmHg 91%

    Day after tomorrow, 20 November, Tuesday

    Time Temperature Precipitation Wind Pressure Humidity
    00:00 +7°C° 0.1 mm 8 mps 756 mmHg 91%
    01:00 +7°C° 0.1 mm 9 mps 756 mmHg 90%
    02:00 +7°C° 0.1 mm 10 mps 757 mmHg 90%
    03:00 +6°C° 0.1 mm 10 mps 757 mmHg 89%
    04:00 +5°C° 0.1 mm 10 mps 757 mmHg 87%
    05:00 +3°C° 0.1 mm 11 mps 758 mmHg 86%
    06:00 +3°C° 0 mm 10 mps 759 mmHg 85%
    07:00 +3°C° 0 mm 10 mps 760 mmHg 84%
    08:00 +2°C° 0 mm 9 mps 760 mmHg 83%
    09:00 +2°C° 0 mm 9 mps 761 mmHg 82%
    10:00 +2°C° 0 mm 8 mps 762 mmHg 80%
    11:00 +2°C° 0 mm 8 mps 762 mmHg 78%
    12:00 +3°C° 0 mm 7 mps 762 mmHg 77%
    13:00 +4°C° 0 mm 7 mps 763 mmHg 76%
    14:00 +4°C° 0 mm 6 mps 763 mmHg 75%
    15:00 +3°C° 0 mm 6 mps 763 mmHg 76%
    16:00 +3°C° 0 mm 5 mps 764 mmHg 78%
    17:00 +4°C° 0 mm 4 mps 764 mmHg 80%
    18:00 +3°C° 0 mm 4 mps 764 mmHg 82%
    19:00 +3°C° 0 mm 4 mps 764 mmHg 84%
    20:00 +2°C° 0 mm 3 mps 765 mmHg 86%
    21:00 +2°C° 0 mm 3 mps 765 mmHg 87%
    22:00 +3°C° 0 mm 2 mps 765 mmHg 89%
    23:00 +2°C° 0 mm 2 mps 765 mmHg 90%

    21 November, Wednesday

    Time Temperature Precipitation Wind Pressure Humidity
    00:00 +2°C° 0 mm 2 mps 764 mmHg 91%
    01:00 +2°C° 0 mm 2 mps 764 mmHg 92%
    02:00 +1°C° 0 mm 2 mps 764 mmHg 93%
    03:00 +1°C° 0 mm 2 mps 764 mmHg 93%
    04:00 0°C° 0 mm 3 mps 764 mmHg 93%
    05:00 0°C° 0 mm 3 mps 764 mmHg 93%
    06:00 +1°C° 0.1 mm 3 mps 764 mmHg 91%
    07:00 +1°C° 0.1 mm 3 mps 764 mmHg 89%
    08:00 +2°C° 0.1 mm 3 mps 764 mmHg 86%
    09:00 +1°C° 0.1 mm 4 mps 764 mmHg 83%
    10:00 +3°C° 0.1 mm 4 mps 764 mmHg 80%
    11:00 +4°C° 0.1 mm 4 mps 764 mmHg 77%
    12:00 +4°C° 0 mm 4 mps 763 mmHg 76%
    13:00 +3°C° 0 mm 5 mps 763 mmHg 74%
    14:00 +5°C° 0 mm 5 mps 763 mmHg 73%
    15:00 +3°C° 0 mm 5 mps 763 mmHg 74%
    16:00 +3°C° 0 mm 5 mps 763 mmHg 76%
    17:00 +3°C° 0 mm 5 mps 762 mmHg 77%
    18:00 +3°C° 0.1 mm 5 mps 762 mmHg 78%
    19:00 +2°C° 0.1 mm 6 mps 762 mmHg 79%
    20:00 +2°C° 0.1 mm 6 mps 762 mmHg 79%
    21:00 +2°C° 0.1 mm 6 mps 763 mmHg 80%
    22:00 +2°C° 0.1 mm 6 mps 763 mmHg 80%
    23:00 +2°C° 0.1 mm 6 mps 763 mmHg 81%

    22 November, Thursday

    Time Temperature Precipitation Wind Pressure Humidity
    00:00 +2°C° 0.1 mm 6 mps 763 mmHg 81%
    01:00 +1°C° 0.1 mm 6 mps 762 mmHg 82%
    02:00 +1°C° 0.1 mm 6 mps 762 mmHg 83%
    03:00 +1°C° 0 mm 6 mps 762 mmHg 82%
    04:00 0°C° 0 mm 7 mps 763 mmHg 82%
    05:00 0°C° 0 mm 7 mps 763 mmHg 82%
    06:00 0°C° 0 mm 7 mps 763 mmHg 81%
    07:00 0°C° 0 mm 7 mps 763 mmHg 80%
    08:00 0°C° 0 mm 7 mps 763 mmHg 79%
    09:00 +2°C° 0 mm 7 mps 764 mmHg 75%
    10:00 +2°C° 0 mm 7 mps 764 mmHg 72%
    11:00 +3°C° 0 mm 7 mps 764 mmHg 68%
    12:00 +3°C° 0 mm 7 mps 764 mmHg 66%
    13:00 +3°C° 0 mm 7 mps 764 mmHg 63%
    14:00 +3°C° 0 mm 7 mps 764 mmHg 61%
    15:00 +3°C° 0 mm 6 mps 765 mmHg 62%
    16:00 +2°C° 0 mm 6 mps 765 mmHg 63%
    17:00 +1°C° 0 mm 6 mps 765 mmHg 64%
    18:00 -1°C° 0 mm 6 mps 766 mmHg 65%
    19:00 -1°C° 0 mm 6 mps 766 mmHg 66%
    20:00 -2°C° 0 mm 6 mps 766 mmHg 67%
    21:00 -2°C° 0 mm 6 mps 767 mmHg 70%
    22:00 -3°C° 0 mm 6 mps 767 mmHg 73%
    23:00 -4°C° 0 mm 6 mps 767 mmHg 75%

    23 November, Friday

    Time Temperature Precipitation Wind Pressure Humidity
    00:00 -4°C° 0 mm 6 mps 767 mmHg 76%
    01:00 -4°C° 0 mm 6 mps 768 mmHg 77%
    02:00 -4°C° 0 mm 5 mps 768 mmHg 78%
    03:00 -5°C° 0 mm 5 mps 768 mmHg 78%
    04:00 -5°C° 0 mm 5 mps 768 mmHg 78%
    05:00 -5°C° 0 mm 5 mps 768 mmHg 79%
    06:00 -5°C° 0 mm 5 mps 769 mmHg 77%
    07:00 -5°C° 0 mm 5 mps 769 mmHg 76%
    08:00 -4°C° 0 mm 5 mps 769 mmHg 75%
    09:00 -2°C° 0 mm 5 mps 769 mmHg 69%
    10:00 -1°C° 0 mm 5 mps 770 mmHg 62%
    11:00 0°C° 0 mm 5 mps 770 mmHg 56%
    12:00 +1°C° 0 mm 5 mps 769 mmHg 55%
    13:00 +1°C° 0 mm 5 mps 769 mmHg 53%
    14:00 +1°C° 0 mm 4 mps 769 mmHg 51%
    15:00 +1°C° 0 mm 4 mps 769 mmHg 55%
    16:00 0°C° 0 mm 4 mps 769 mmHg 60%
    17:00 -1°C° 0 mm 4 mps 769 mmHg 64%
    18:00 -2°C° 0 mm 4 mps 769 mmHg 66%
    19:00 -2°C° 0 mm 4 mps 769 mmHg 68%
    20:00 -3°C° 0 mm 4 mps 770 mmHg 70%
    21:00 -2°C° 0 mm 3 mps 769 mmHg 71%
    22:00 -2°C° 0 mm 3 mps 769 mmHg 72%
    23:00 -2°C° 0 mm 3 mps 769 mmHg 74%
    Show more